#datetime,building,power
2023-05-30T00:00:00,axn,26.32
2023-05-30T00:01:00,axn,26.29
2023-05-30T00:02:00,axn,26.63
2023-05-30T00:03:00,axn,26.36
2023-05-30T00:04:00,axn,26.39
2023-05-30T00:05:00,axn,26.38
2023-05-30T00:06:00,axn,26.19
2023-05-30T00:07:00,axn,26.21
2023-05-30T00:08:00,axn,26.18
2023-05-30T00:09:00,axn,26.86
2023-05-30T00:10:00,axn,26.16
2023-05-30T00:11:00,axn,26.08
2023-05-30T00:12:00,axn,25.86
2023-05-30T00:13:00,axn,25.78
2023-05-30T00:14:00,axn,25.85
2023-05-30T00:15:00,axn,25.82
2023-05-30T00:16:00,axn,25.77
2023-05-30T00:17:00,axn,25.90
2023-05-30T00:18:00,axn,25.99
2023-05-30T00:19:00,axn,26.04
2023-05-30T00:20:00,axn,25.92
2023-05-30T00:21:00,axn,26.07
2023-05-30T00:22:00,axn,26.08
2023-05-30T00:23:00,axn,26.22
2023-05-30T00:24:00,axn,26.07
2023-05-30T00:25:00,axn,26.14
2023-05-30T00:26:00,axn,26.53
2023-05-30T00:27:00,axn,26.26
2023-05-30T00:28:00,axn,26.23
2023-05-30T00:29:00,axn,26.46
2023-05-30T00:30:00,axn,26.24
2023-05-30T00:31:00,axn,26.49
2023-05-30T00:32:00,axn,26.48
2023-05-30T00:33:00,axn,26.45
2023-05-30T00:34:00,axn,26.26
2023-05-30T00:35:00,axn,26.42
2023-05-30T00:36:00,axn,26.57
2023-05-30T00:37:00,axn,26.76
2023-05-30T00:38:00,axn,26.59
2023-05-30T00:39:00,axn,26.78
2023-05-30T00:40:00,axn,27.05
2023-05-30T00:41:00,axn,26.67
2023-05-30T00:42:00,axn,26.77
2023-05-30T00:43:00,axn,27.12
2023-05-30T00:44:00,axn,27.05
2023-05-30T00:45:00,axn,26.71
2023-05-30T00:46:00,axn,26.72
2023-05-30T00:47:00,axn,26.73
2023-05-30T00:48:00,axn,26.48
2023-05-30T00:49:00,axn,26.64
2023-05-30T00:50:00,axn,26.77
2023-05-30T00:51:00,axn,26.62
2023-05-30T00:52:00,axn,26.87
2023-05-30T00:53:00,axn,26.67
2023-05-30T00:54:00,axn,26.62
2023-05-30T00:55:00,axn,26.94
2023-05-30T00:56:00,axn,26.07
2023-05-30T00:57:00,axn,25.52
2023-05-30T00:58:00,axn,25.68
2023-05-30T00:59:00,axn,25.61
2023-05-30T01:00:00,axn,25.67
2023-05-30T01:01:00,axn,25.67
2023-05-30T01:02:00,axn,31.37
2023-05-30T01:03:00,axn,25.60
2023-05-30T01:04:00,axn,25.79
2023-05-30T01:05:00,axn,25.82
2023-05-30T01:06:00,axn,25.82
2023-05-30T01:07:00,axn,25.61
2023-05-30T01:08:00,axn,25.59
2023-05-30T01:09:00,axn,25.64
2023-05-30T01:10:00,axn,28.12
2023-05-30T01:11:00,axn,28.05
2023-05-30T01:12:00,axn,27.92
2023-05-30T01:13:00,axn,25.26
2023-05-30T01:14:00,axn,25.33
2023-05-30T01:15:00,axn,25.40
2023-05-30T01:16:00,axn,25.18
2023-05-30T01:17:00,axn,25.67
2023-05-30T01:18:00,axn,25.38
2023-05-30T01:19:00,axn,23.35
2023-05-30T01:20:00,axn,23.37
2023-05-30T01:21:00,axn,23.44
2023-05-30T01:22:00,axn,23.32
2023-05-30T01:23:00,axn,23.27
2023-05-30T01:24:00,axn,23.55
2023-05-30T01:25:00,axn,23.50
2023-05-30T01:26:00,axn,23.39
2023-05-30T01:27:00,axn,23.39
2023-05-30T01:28:00,axn,23.50
2023-05-30T01:29:00,axn,23.44
2023-05-30T01:30:00,axn,23.36
2023-05-30T01:31:00,axn,23.41
2023-05-30T01:32:00,axn,23.43
2023-05-30T01:33:00,axn,23.93
2023-05-30T01:34:00,axn,23.43
2023-05-30T01:35:00,axn,23.52
2023-05-30T01:36:00,axn,24.12
2023-05-30T01:37:00,axn,23.37
2023-05-30T01:38:00,axn,23.28
2023-05-30T01:39:00,axn,23.31
2023-05-30T01:40:00,axn,23.07
2023-05-30T01:41:00,axn,22.98
2023-05-30T01:42:00,axn,22.94
2023-05-30T01:43:00,axn,23.21
2023-05-30T01:44:00,axn,23.23
2023-05-30T01:45:00,axn,23.38
2023-05-30T01:46:00,axn,23.28
2023-05-30T01:47:00,axn,23.62
2023-05-30T01:48:00,axn,23.36
2023-05-30T01:49:00,axn,23.11
2023-05-30T01:50:00,axn,23.23
2023-05-30T01:51:00,axn,23.18
2023-05-30T01:52:00,axn,23.59
2023-05-30T01:53:00,axn,23.19
2023-05-30T01:54:00,axn,23.05
2023-05-30T01:55:00,axn,22.95
2023-05-30T01:56:00,axn,23.06
2023-05-30T01:57:00,axn,23.04
2023-05-30T01:58:00,axn,22.83
2023-05-30T01:59:00,axn,22.78
2023-05-30T02:00:00,axn,22.87
2023-05-30T02:01:00,axn,22.75
2023-05-30T02:02:00,axn,22.82
2023-05-30T02:03:00,axn,22.81
2023-05-30T02:04:00,axn,22.70
2023-05-30T02:05:00,axn,22.55
2023-05-30T02:06:00,axn,22.73
2023-05-30T02:07:00,axn,22.68
2023-05-30T02:08:00,axn,22.75
2023-05-30T02:09:00,axn,22.73
2023-05-30T02:10:00,axn,22.70
2023-05-30T02:11:00,axn,22.66
2023-05-30T02:12:00,axn,22.64
2023-05-30T02:13:00,axn,22.78
2023-05-30T02:14:00,axn,22.80
2023-05-30T02:15:00,axn,22.77
2023-05-30T02:16:00,axn,22.76
2023-05-30T02:17:00,axn,22.71
2023-05-30T02:18:00,axn,22.62
2023-05-30T02:19:00,axn,22.72
2023-05-30T02:20:00,axn,22.77
2023-05-30T02:21:00,axn,22.86
2023-05-30T02:22:00,axn,22.70
2023-05-30T02:23:00,axn,22.66
2023-05-30T02:24:00,axn,27.84
2023-05-30T02:25:00,axn,22.70
2023-05-30T02:26:00,axn,23.06
2023-05-30T02:27:00,axn,22.86
2023-05-30T02:28:00,axn,23.25
2023-05-30T02:29:00,axn,22.89
2023-05-30T02:30:00,axn,22.76
2023-05-30T02:31:00,axn,22.87
2023-05-30T02:32:00,axn,23.07
2023-05-30T02:33:00,axn,22.75
2023-05-30T02:34:00,axn,22.76
2023-05-30T02:35:00,axn,22.66
2023-05-30T02:36:00,axn,22.69
2023-05-30T02:37:00,axn,22.91
2023-05-30T02:38:00,axn,22.87
2023-05-30T02:39:00,axn,22.87
2023-05-30T02:40:00,axn,22.86
2023-05-30T02:41:00,axn,22.81
2023-05-30T02:42:00,axn,22.77
2023-05-30T02:43:00,axn,22.74
2023-05-30T02:44:00,axn,22.84
2023-05-30T02:45:00,axn,22.76
2023-05-30T02:46:00,axn,22.81
2023-05-30T02:47:00,axn,22.89
2023-05-30T02:48:00,axn,23.39
2023-05-30T02:49:00,axn,22.70
2023-05-30T02:50:00,axn,22.62
2023-05-30T02:51:00,axn,22.57
2023-05-30T02:52:00,axn,23.06
2023-05-30T02:53:00,axn,23.37
2023-05-30T02:54:00,axn,23.65
2023-05-30T02:55:00,axn,26.66
2023-05-30T02:56:00,axn,23.80
2023-05-30T02:57:00,axn,23.84
2023-05-30T02:58:00,axn,24.04
2023-05-30T02:59:00,axn,23.85
2023-05-30T03:00:00,axn,23.83
2023-05-30T03:01:00,axn,23.88
2023-05-30T03:02:00,axn,23.99
2023-05-30T03:03:00,axn,23.80
2023-05-30T03:04:00,axn,23.90
2023-05-30T03:05:00,axn,24.25
2023-05-30T03:06:00,axn,23.99
2023-05-30T03:07:00,axn,23.98
2023-05-30T03:08:00,axn,24.02
2023-05-30T03:09:00,axn,23.90
2023-05-30T03:10:00,axn,23.98
2023-05-30T03:11:00,axn,23.83
2023-05-30T03:12:00,axn,23.92
2023-05-30T03:13:00,axn,23.89
2023-05-30T03:14:00,axn,23.97
2023-05-30T03:15:00,axn,24.12
2023-05-30T03:16:00,axn,24.14
2023-05-30T03:17:00,axn,24.06
2023-05-30T03:18:00,axn,24.08
2023-05-30T03:19:00,axn,24.23
2023-05-30T03:20:00,axn,24.31
2023-05-30T03:21:00,axn,24.20
2023-05-30T03:22:00,axn,24.18
2023-05-30T03:23:00,axn,24.19
2023-05-30T03:24:00,axn,24.14
2023-05-30T03:25:00,axn,23.89
2023-05-30T03:26:00,axn,24.44
2023-05-30T03:27:00,axn,24.24
2023-05-30T03:28:00,axn,24.15
2023-05-30T03:29:00,axn,24.20
2023-05-30T03:30:00,axn,24.42
2023-05-30T03:31:00,axn,24.08
2023-05-30T03:32:00,axn,24.16
2023-05-30T03:33:00,axn,24.13
2023-05-30T03:34:00,axn,34.64
2023-05-30T03:35:00,axn,34.39
2023-05-30T03:36:00,axn,34.42
2023-05-30T03:37:00,axn,34.48
2023-05-30T03:38:00,axn,24.03
2023-05-30T03:39:00,axn,23.74
2023-05-30T03:40:00,axn,23.77
2023-05-30T03:41:00,axn,23.82
2023-05-30T03:42:00,axn,23.67
2023-05-30T03:43:00,axn,23.54
2023-05-30T03:44:00,axn,24.17
2023-05-30T03:45:00,axn,23.82
2023-05-30T03:46:00,axn,28.83
2023-05-30T03:47:00,axn,23.75
2023-05-30T03:48:00,axn,23.84
2023-05-30T03:49:00,axn,24.03
2023-05-30T03:50:00,axn,24.44
2023-05-30T03:51:00,axn,23.82
2023-05-30T03:52:00,axn,24.17
2023-05-30T03:53:00,axn,23.80
2023-05-30T03:54:00,axn,23.76
2023-05-30T03:55:00,axn,23.86
2023-05-30T03:56:00,axn,23.79
2023-05-30T03:57:00,axn,23.76
2023-05-30T03:58:00,axn,23.76
2023-05-30T03:59:00,axn,23.71
2023-05-30T04:00:00,axn,23.86
2023-05-30T04:01:00,axn,23.83
2023-05-30T04:02:00,axn,23.86
2023-05-30T04:03:00,axn,24.04
2023-05-30T04:04:00,axn,23.70
2023-05-30T04:05:00,axn,29.69
2023-05-30T04:06:00,axn,29.61
2023-05-30T04:07:00,axn,29.58
2023-05-30T04:08:00,axn,24.00
2023-05-30T04:09:00,axn,24.07
2023-05-30T04:10:00,axn,23.98
2023-05-30T04:11:00,axn,24.15
2023-05-30T04:12:00,axn,24.09
2023-05-30T04:13:00,axn,24.16
2023-05-30T04:14:00,axn,24.24
2023-05-30T04:15:00,axn,24.37
2023-05-30T04:16:00,axn,25.01
2023-05-30T04:17:00,axn,25.00
2023-05-30T04:18:00,axn,39.62
2023-05-30T04:19:00,axn,39.47
2023-05-30T04:20:00,axn,24.63
2023-05-30T04:21:00,axn,38.92
2023-05-30T04:22:00,axn,38.76
2023-05-30T04:23:00,axn,38.65
2023-05-30T04:24:00,axn,38.58
2023-05-30T04:25:00,axn,25.13
2023-05-30T04:26:00,axn,24.76
2023-05-30T04:27:00,axn,24.82
2023-05-30T04:28:00,axn,24.76
2023-05-30T04:29:00,axn,24.81
2023-05-30T04:30:00,axn,24.63
2023-05-30T04:31:00,axn,25.09
2023-05-30T04:32:00,axn,24.64
2023-05-30T04:33:00,axn,27.87
2023-05-30T04:34:00,axn,24.81
2023-05-30T04:35:00,axn,24.58
2023-05-30T04:36:00,axn,24.64
2023-05-30T04:37:00,axn,24.56
2023-05-30T04:38:00,axn,24.53
2023-05-30T04:39:00,axn,24.67
2023-05-30T04:40:00,axn,24.75
2023-05-30T04:41:00,axn,24.63
2023-05-30T04:42:00,axn,24.51
2023-05-30T04:43:00,axn,27.14
2023-05-30T04:44:00,axn,27.33
2023-05-30T04:45:00,axn,27.09
2023-05-30T04:46:00,axn,24.50
2023-05-30T04:47:00,axn,24.42
2023-05-30T04:48:00,axn,24.12
2023-05-30T04:49:00,axn,24.10
2023-05-30T04:50:00,axn,24.18
2023-05-30T04:51:00,axn,24.60
2023-05-30T04:52:00,axn,27.81
2023-05-30T04:53:00,axn,25.36
2023-05-30T04:54:00,axn,25.49
2023-05-30T04:55:00,axn,25.55
2023-05-30T04:56:00,axn,26.13
2023-05-30T04:57:00,axn,25.72
2023-05-30T04:58:00,axn,25.35
2023-05-30T04:59:00,axn,25.29
2023-05-30T05:00:00,axn,25.26
2023-05-30T05:01:00,axn,23.80
2023-05-30T05:02:00,axn,23.85
2023-05-30T05:03:00,axn,23.85
2023-05-30T05:04:00,axn,23.67
2023-05-30T05:05:00,axn,23.69
2023-05-30T05:06:00,axn,23.63
2023-05-30T05:07:00,axn,23.55
2023-05-30T05:08:00,axn,23.35
2023-05-30T05:09:00,axn,23.38
2023-05-30T05:10:00,axn,23.38
2023-05-30T05:11:00,axn,23.31
2023-05-30T05:12:00,axn,23.27
2023-05-30T05:13:00,axn,22.43
2023-05-30T05:14:00,axn,22.40
2023-05-30T05:15:00,axn,22.55
2023-05-30T05:16:00,axn,23.15
2023-05-30T05:17:00,axn,24.72
2023-05-30T05:18:00,axn,24.58
2023-05-30T05:19:00,axn,24.61
2023-05-30T05:20:00,axn,24.78
2023-05-30T05:21:00,axn,25.01
2023-05-30T05:22:00,axn,25.35
2023-05-30T05:23:00,axn,24.89
2023-05-30T05:24:00,axn,24.83
2023-05-30T05:25:00,axn,24.98
2023-05-30T05:26:00,axn,40.60
2023-05-30T05:27:00,axn,24.83
2023-05-30T05:28:00,axn,24.75
2023-05-30T05:29:00,axn,24.82
2023-05-30T05:30:00,axn,24.56
2023-05-30T05:31:00,axn,27.61
2023-05-30T05:32:00,axn,27.78
2023-05-30T05:33:00,axn,28.23
2023-05-30T05:34:00,axn,27.46
2023-05-30T05:35:00,axn,27.40
2023-05-30T05:36:00,axn,27.32
2023-05-30T05:37:00,axn,27.14
2023-05-30T05:38:00,axn,27.26
2023-05-30T05:39:00,axn,27.15
2023-05-30T05:40:00,axn,27.16
2023-05-30T05:41:00,axn,27.36
2023-05-30T05:42:00,axn,27.65
2023-05-30T05:43:00,axn,27.21
2023-05-30T05:44:00,axn,27.15
2023-05-30T05:45:00,axn,27.02
2023-05-30T05:46:00,axn,26.68
2023-05-30T05:47:00,axn,26.94
2023-05-30T05:48:00,axn,31.32
2023-05-30T05:49:00,axn,31.14
2023-05-30T05:50:00,axn,31.31
2023-05-30T05:51:00,axn,31.47
2023-05-30T05:52:00,axn,26.73
2023-05-30T05:53:00,axn,26.94
2023-05-30T05:54:00,axn,26.87
2023-05-30T05:55:00,axn,26.89
2023-05-30T05:56:00,axn,26.96
2023-05-30T05:57:00,axn,26.85
2023-05-30T05:58:00,axn,24.75
2023-05-30T05:59:00,axn,24.77
2023-05-30T06:00:00,axn,24.75
2023-05-30T06:01:00,axn,24.79
2023-05-30T06:02:00,axn,24.72
2023-05-30T06:03:00,axn,24.81
2023-05-30T06:04:00,axn,24.44
2023-05-30T06:05:00,axn,24.62
2023-05-30T06:06:00,axn,24.50
2023-05-30T06:07:00,axn,24.37
2023-05-30T06:08:00,axn,24.03
2023-05-30T06:09:00,axn,24.11
2023-05-30T06:10:00,axn,23.91
2023-05-30T06:11:00,axn,27.02
2023-05-30T06:12:00,axn,27.10
2023-05-30T06:13:00,axn,24.09
2023-05-30T06:14:00,axn,24.14
2023-05-30T06:15:00,axn,24.71
2023-05-30T06:16:00,axn,24.01
2023-05-30T06:17:00,axn,23.83
2023-05-30T06:18:00,axn,24.21
2023-05-30T06:19:00,axn,23.90
2023-05-30T06:20:00,axn,24.15
2023-05-30T06:21:00,axn,23.94
2023-05-30T06:22:00,axn,23.98
2023-05-30T06:23:00,axn,23.84
2023-05-30T06:24:00,axn,23.88
2023-05-30T06:25:00,axn,23.89
2023-05-30T06:26:00,axn,23.82
2023-05-30T06:27:00,axn,23.68
2023-05-30T06:28:00,axn,23.71
2023-05-30T06:29:00,axn,24.06
2023-05-30T06:30:00,axn,23.94
2023-05-30T06:31:00,axn,23.81
2023-05-30T06:32:00,axn,23.73
2023-05-30T06:33:00,axn,23.66
2023-05-30T06:34:00,axn,23.76
2023-05-30T06:35:00,axn,23.70
2023-05-30T06:36:00,axn,24.01
2023-05-30T06:37:00,axn,23.71
2023-05-30T06:38:00,axn,23.78
2023-05-30T06:39:00,axn,23.56
2023-05-30T06:40:00,axn,23.54
2023-05-30T06:41:00,axn,23.57
2023-05-30T06:42:00,axn,23.64
2023-05-30T06:43:00,axn,23.74
2023-05-30T06:44:00,axn,23.59
2023-05-30T06:45:00,axn,23.63
2023-05-30T06:46:00,axn,23.71
2023-05-30T06:47:00,axn,23.29
2023-05-30T06:48:00,axn,23.38
2023-05-30T06:49:00,axn,23.60
2023-05-30T06:50:00,axn,23.37
2023-05-30T06:51:00,axn,23.83
2023-05-30T06:52:00,axn,23.96
2023-05-30T06:53:00,axn,23.91
2023-05-30T06:54:00,axn,23.87
2023-05-30T06:55:00,axn,24.04
2023-05-30T06:56:00,axn,24.41
2023-05-30T06:57:00,axn,24.73
2023-05-30T06:58:00,axn,23.85
2023-05-30T06:59:00,axn,23.88
2023-05-30T07:00:00,axn,23.87
2023-05-30T07:01:00,axn,28.50
2023-05-30T07:02:00,axn,30.10
2023-05-30T07:03:00,axn,29.37
2023-05-30T07:04:00,axn,29.42
2023-05-30T07:05:00,axn,29.41
2023-05-30T07:06:00,axn,29.63
2023-05-30T07:07:00,axn,29.42
2023-05-30T07:08:00,axn,31.14
2023-05-30T07:09:00,axn,30.76
2023-05-30T07:10:00,axn,30.02
2023-05-30T07:11:00,axn,30.85
2023-05-30T07:12:00,axn,29.11
2023-05-30T07:13:00,axn,29.66
2023-05-30T07:14:00,axn,29.36
2023-05-30T07:15:00,axn,29.22
2023-05-30T07:16:00,axn,29.85
2023-05-30T07:17:00,axn,29.60
2023-05-30T07:18:00,axn,29.21
2023-05-30T07:19:00,axn,29.35
2023-05-30T07:20:00,axn,29.32
2023-05-30T07:21:00,axn,29.35
2023-05-30T07:22:00,axn,29.45
2023-05-30T07:23:00,axn,29.42
2023-05-30T07:24:00,axn,29.73
2023-05-30T07:25:00,axn,29.99
2023-05-30T07:26:00,axn,29.94
2023-05-30T07:27:00,axn,29.98
2023-05-30T07:28:00,axn,29.70
2023-05-30T07:29:00,axn,30.05
2023-05-30T07:30:00,axn,29.91
2023-05-30T07:31:00,axn,29.88
2023-05-30T07:32:00,axn,29.82
2023-05-30T07:33:00,axn,30.20
2023-05-30T07:34:00,axn,30.04
2023-05-30T07:35:00,axn,30.09
2023-05-30T07:36:00,axn,29.96
2023-05-30T07:37:00,axn,30.19
2023-05-30T07:38:00,axn,29.84
2023-05-30T07:39:00,axn,29.90
2023-05-30T07:40:00,axn,29.66
2023-05-30T07:41:00,axn,29.61
2023-05-30T07:42:00,axn,29.48
2023-05-30T07:43:00,axn,29.53
2023-05-30T07:44:00,axn,29.62
2023-05-30T07:45:00,axn,29.95
2023-05-30T07:46:00,axn,29.64
2023-05-30T07:47:00,axn,29.77
2023-05-30T07:48:00,axn,29.47
2023-05-30T07:49:00,axn,29.58
2023-05-30T07:50:00,axn,29.22
2023-05-30T07:51:00,axn,31.84
2023-05-30T07:52:00,axn,31.78
2023-05-30T07:53:00,axn,31.75
2023-05-30T07:54:00,axn,28.90
2023-05-30T07:55:00,axn,28.90
2023-05-30T07:56:00,axn,28.96
2023-05-30T07:57:00,axn,28.92
2023-05-30T07:58:00,axn,28.81
2023-05-30T07:59:00,axn,28.90
2023-05-30T08:00:00,axn,28.85
2023-05-30T08:01:00,axn,28.65
2023-05-30T08:02:00,axn,32.17
2023-05-30T08:03:00,axn,32.23
2023-05-30T08:04:00,axn,32.60
2023-05-30T08:05:00,axn,32.27
2023-05-30T08:06:00,axn,32.33
2023-05-30T08:07:00,axn,32.23
2023-05-30T08:08:00,axn,32.02
2023-05-30T08:09:00,axn,31.86
2023-05-30T08:10:00,axn,31.99
2023-05-30T08:11:00,axn,32.22
2023-05-30T08:12:00,axn,31.93
2023-05-30T08:13:00,axn,31.95
2023-05-30T08:14:00,axn,32.15
2023-05-30T08:15:00,axn,32.08
2023-05-30T08:16:00,axn,32.38
2023-05-30T08:17:00,axn,31.77
2023-05-30T08:18:00,axn,31.93
2023-05-30T08:19:00,axn,32.04
2023-05-30T08:20:00,axn,31.93
2023-05-30T08:21:00,axn,31.89
2023-05-30T08:22:00,axn,32.02
2023-05-30T08:23:00,axn,32.33
2023-05-30T08:24:00,axn,32.54
2023-05-30T08:25:00,axn,32.46
2023-05-30T08:26:00,axn,32.46
2023-05-30T08:27:00,axn,32.43
2023-05-30T08:28:00,axn,32.51
2023-05-30T08:29:00,axn,32.69
2023-05-30T08:30:00,axn,32.79
2023-05-30T08:31:00,axn,32.84
2023-05-30T08:32:00,axn,33.01
2023-05-30T08:33:00,axn,33.17
2023-05-30T08:34:00,axn,32.91
2023-05-30T08:35:00,axn,32.89
2023-05-30T08:36:00,axn,33.10
2023-05-30T08:37:00,axn,33.16
2023-05-30T08:38:00,axn,33.25
2023-05-30T08:39:00,axn,33.22
2023-05-30T08:40:00,axn,33.28
2023-05-30T08:41:00,axn,33.98
2023-05-30T08:42:00,axn,33.44
2023-05-30T08:43:00,axn,33.46
2023-05-30T08:44:00,axn,33.13
2023-05-30T08:45:00,axn,33.17
2023-05-30T08:46:00,axn,33.06
2023-05-30T08:47:00,axn,33.18
2023-05-30T08:48:00,axn,32.63
2023-05-30T08:49:00,axn,32.68
2023-05-30T08:50:00,axn,32.69
2023-05-30T08:51:00,axn,33.50
2023-05-30T08:52:00,axn,32.70
2023-05-30T08:53:00,axn,32.76
2023-05-30T08:54:00,axn,32.71
2023-05-30T08:55:00,axn,33.08
2023-05-30T08:56:00,axn,50.36
2023-05-30T08:57:00,axn,33.48
2023-05-30T08:58:00,axn,47.70
2023-05-30T08:59:00,axn,47.51
2023-05-30T09:00:00,axn,48.01
2023-05-30T09:01:00,axn,47.73
2023-05-30T09:02:00,axn,47.97
2023-05-30T09:03:00,axn,34.12
2023-05-30T09:04:00,axn,34.01
2023-05-30T09:05:00,axn,33.96
2023-05-30T09:06:00,axn,33.87
2023-05-30T09:07:00,axn,33.83
2023-05-30T09:08:00,axn,34.41
2023-05-30T09:09:00,axn,33.59
2023-05-30T09:10:00,axn,36.37
2023-05-30T09:11:00,axn,33.03
2023-05-30T09:12:00,axn,32.94
2023-05-30T09:13:00,axn,32.99
2023-05-30T09:14:00,axn,32.96
2023-05-30T09:15:00,axn,32.95
2023-05-30T09:16:00,axn,32.91
2023-05-30T09:17:00,axn,32.98
2023-05-30T09:18:00,axn,33.43
2023-05-30T09:19:00,axn,33.59
2023-05-30T09:20:00,axn,33.63
2023-05-30T09:21:00,axn,42.32
2023-05-30T09:22:00,axn,42.77
2023-05-30T09:23:00,axn,42.10
2023-05-30T09:24:00,axn,42.18
2023-05-30T09:25:00,axn,42.12
2023-05-30T09:26:00,axn,53.25
2023-05-30T09:27:00,axn,41.85
2023-05-30T09:28:00,axn,41.84
2023-05-30T09:29:00,axn,41.43
2023-05-30T09:30:00,axn,41.55
2023-05-30T09:31:00,axn,41.38
2023-05-30T09:32:00,axn,41.91
2023-05-30T09:33:00,axn,41.52
2023-05-30T09:34:00,axn,41.02
2023-05-30T09:35:00,axn,41.71
2023-05-30T09:36:00,axn,41.38
2023-05-30T09:37:00,axn,41.34
2023-05-30T09:38:00,axn,41.66
2023-05-30T09:39:00,axn,41.74
2023-05-30T09:40:00,axn,41.80
2023-05-30T09:41:00,axn,43.61
2023-05-30T09:42:00,axn,43.03
2023-05-30T09:43:00,axn,42.86
2023-05-30T09:44:00,axn,43.07
2023-05-30T09:45:00,axn,40.34
2023-05-30T09:46:00,axn,39.25
2023-05-30T09:47:00,axn,39.31
2023-05-30T09:48:00,axn,39.03
2023-05-30T09:49:00,axn,38.88
2023-05-30T09:50:00,axn,38.90
2023-05-30T09:51:00,axn,39.17
2023-05-30T09:52:00,axn,39.17
2023-05-30T09:53:00,axn,39.42
2023-05-30T09:54:00,axn,39.15
2023-05-30T09:55:00,axn,39.20
2023-05-30T09:56:00,axn,39.83
2023-05-30T09:57:00,axn,39.27
2023-05-30T09:58:00,axn,39.15
2023-05-30T09:59:00,axn,39.62
2023-05-30T10:00:00,axn,39.92
2023-05-30T10:01:00,axn,39.41
2023-05-30T10:02:00,axn,39.03
2023-05-30T10:03:00,axn,39.27
2023-05-30T10:04:00,axn,39.09
2023-05-30T10:05:00,axn,44.24
2023-05-30T10:06:00,axn,39.26
2023-05-30T10:07:00,axn,39.34
2023-05-30T10:08:00,axn,39.02
2023-05-30T10:09:00,axn,38.93
2023-05-30T10:10:00,axn,39.05
2023-05-30T10:11:00,axn,39.37
2023-05-30T10:12:00,axn,39.64
2023-05-30T10:13:00,axn,39.58
2023-05-30T10:14:00,axn,39.47
2023-05-30T10:15:00,axn,39.29
2023-05-30T10:16:00,axn,39.32
2023-05-30T10:17:00,axn,39.55
2023-05-30T10:18:00,axn,39.63
2023-05-30T10:19:00,axn,39.70
2023-05-30T10:20:00,axn,39.33
2023-05-30T10:21:00,axn,39.25
2023-05-30T10:22:00,axn,38.93
2023-05-30T10:23:00,axn,39.02
2023-05-30T10:24:00,axn,39.29
2023-05-30T10:25:00,axn,38.88
2023-05-30T10:26:00,axn,38.98
2023-05-30T10:27:00,axn,38.93
2023-05-30T10:28:00,axn,39.15
2023-05-30T10:29:00,axn,39.40
2023-05-30T10:30:00,axn,39.44
2023-05-30T10:31:00,axn,39.58
2023-05-30T10:32:00,axn,38.74
2023-05-30T10:33:00,axn,39.19
2023-05-30T10:34:00,axn,39.77
2023-05-30T10:35:00,axn,39.58
2023-05-30T10:36:00,axn,39.93
2023-05-30T10:37:00,axn,39.70
2023-05-30T10:38:00,axn,38.99
2023-05-30T10:39:00,axn,39.44
2023-05-30T10:40:00,axn,38.95
2023-05-30T10:41:00,axn,39.13
2023-05-30T10:42:00,axn,38.91
2023-05-30T10:43:00,axn,38.90
2023-05-30T10:44:00,axn,39.00
2023-05-30T10:45:00,axn,39.08
2023-05-30T10:46:00,axn,39.58
2023-05-30T10:47:00,axn,39.12
2023-05-30T10:48:00,axn,39.27
2023-05-30T10:49:00,axn,38.98
2023-05-30T10:50:00,axn,39.20
2023-05-30T10:51:00,axn,39.43
2023-05-30T10:52:00,axn,39.43
2023-05-30T10:53:00,axn,39.32
2023-05-30T10:54:00,axn,39.43
2023-05-30T10:55:00,axn,43.67
2023-05-30T10:56:00,axn,43.40
2023-05-30T10:57:00,axn,43.27
2023-05-30T10:58:00,axn,43.10
2023-05-30T10:59:00,axn,43.20
2023-05-30T11:00:00,axn,43.22
2023-05-30T11:01:00,axn,45.89
2023-05-30T11:02:00,axn,45.90
2023-05-30T11:03:00,axn,45.66
2023-05-30T11:04:00,axn,54.69
2023-05-30T11:05:00,axn,54.90
2023-05-30T11:06:00,axn,54.44
2023-05-30T11:07:00,axn,54.58
2023-05-30T11:08:00,axn,54.44
2023-05-30T11:09:00,axn,43.74
2023-05-30T11:10:00,axn,43.75
2023-05-30T11:11:00,axn,43.95
2023-05-30T11:12:00,axn,43.81
2023-05-30T11:13:00,axn,44.29
2023-05-30T11:14:00,axn,43.40
2023-05-30T11:15:00,axn,43.29
2023-05-30T11:16:00,axn,43.25
2023-05-30T11:17:00,axn,43.25
2023-05-30T11:18:00,axn,43.21
2023-05-30T11:19:00,axn,43.88
2023-05-30T11:20:00,axn,43.96
2023-05-30T11:21:00,axn,43.61
2023-05-30T11:22:00,axn,43.96
2023-05-30T11:23:00,axn,43.34
2023-05-30T11:24:00,axn,43.64
2023-05-30T11:25:00,axn,43.57
2023-05-30T11:26:00,axn,43.86
2023-05-30T11:27:00,axn,43.25
2023-05-30T11:28:00,axn,43.82
2023-05-30T11:29:00,axn,43.77
2023-05-30T11:30:00,axn,43.41
2023-05-30T11:31:00,axn,43.34
2023-05-30T11:32:00,axn,43.57
2023-05-30T11:33:00,axn,43.57
2023-05-30T11:34:00,axn,43.68
2023-05-30T11:35:00,axn,43.68
2023-05-30T11:36:00,axn,43.77
2023-05-30T11:37:00,axn,43.14
2023-05-30T11:38:00,axn,43.49
2023-05-30T11:39:00,axn,44.51
2023-05-30T11:40:00,axn,44.81
2023-05-30T11:41:00,axn,45.05
2023-05-30T11:42:00,axn,45.43
2023-05-30T11:43:00,axn,45.12
2023-05-30T11:44:00,axn,45.83
2023-05-30T11:45:00,axn,45.41
2023-05-30T11:46:00,axn,44.70
2023-05-30T11:47:00,axn,44.89
2023-05-30T11:48:00,axn,44.30
2023-05-30T11:49:00,axn,44.79
2023-05-30T11:50:00,axn,44.57
2023-05-30T11:51:00,axn,44.67
2023-05-30T11:52:00,axn,44.45
2023-05-30T11:53:00,axn,44.01
2023-05-30T11:54:00,axn,45.13
2023-05-30T11:55:00,axn,44.47
2023-05-30T11:56:00,axn,45.50
2023-05-30T11:57:00,axn,44.83
2023-05-30T11:58:00,axn,45.37
2023-05-30T11:59:00,axn,45.12
2023-05-30T12:00:00,axn,44.99
2023-05-30T12:01:00,axn,44.99
2023-05-30T12:02:00,axn,45.43
2023-05-30T12:03:00,axn,45.54
2023-05-30T12:04:00,axn,45.24
2023-05-30T12:05:00,axn,44.80
2023-05-30T12:06:00,axn,44.81
2023-05-30T12:07:00,axn,45.02
2023-05-30T12:08:00,axn,44.80
2023-05-30T12:09:00,axn,44.95
2023-05-30T12:10:00,axn,45.28
2023-05-30T12:11:00,axn,51.34
2023-05-30T12:12:00,axn,51.06
2023-05-30T12:13:00,axn,51.02
2023-05-30T12:14:00,axn,45.12
2023-05-30T12:15:00,axn,45.10
2023-05-30T12:16:00,axn,47.01
2023-05-30T12:17:00,axn,45.28
2023-05-30T12:18:00,axn,44.93
2023-05-30T12:19:00,axn,44.97
2023-05-30T12:20:00,axn,44.86
2023-05-30T12:21:00,axn,45.76
2023-05-30T12:22:00,axn,45.71
2023-05-30T12:23:00,axn,44.72
2023-05-30T12:24:00,axn,45.09
2023-05-30T12:25:00,axn,44.90
2023-05-30T12:26:00,axn,44.76
2023-05-30T12:27:00,axn,44.78
2023-05-30T12:28:00,axn,44.57
2023-05-30T12:29:00,axn,44.43
2023-05-30T12:30:00,axn,47.41
2023-05-30T12:31:00,axn,47.64
2023-05-30T12:32:00,axn,44.76
2023-05-30T12:33:00,axn,44.45
2023-05-30T12:34:00,axn,44.73
2023-05-30T12:35:00,axn,44.91
2023-05-30T12:36:00,axn,44.75
2023-05-30T12:37:00,axn,44.85
2023-05-30T12:38:00,axn,47.03
2023-05-30T12:39:00,axn,47.33
2023-05-30T12:40:00,axn,44.77
2023-05-30T12:41:00,axn,45.31
2023-05-30T12:42:00,axn,44.74
2023-05-30T12:43:00,axn,44.49
2023-05-30T12:44:00,axn,44.41
2023-05-30T12:45:00,axn,43.84
2023-05-30T12:46:00,axn,44.60
2023-05-30T12:47:00,axn,44.49
2023-05-30T12:48:00,axn,43.92
2023-05-30T12:49:00,axn,44.84
2023-05-30T12:50:00,axn,43.45
2023-05-30T12:51:00,axn,43.24
2023-05-30T12:52:00,axn,43.80
2023-05-30T12:53:00,axn,43.54
2023-05-30T12:54:00,axn,43.59
2023-05-30T12:55:00,axn,44.13
2023-05-30T12:56:00,axn,44.05
2023-05-30T12:57:00,axn,44.27
2023-05-30T12:58:00,axn,43.72
2023-05-30T12:59:00,axn,43.57
2023-05-30T13:00:00,axn,43.72
2023-05-30T13:01:00,axn,43.48
2023-05-30T13:02:00,axn,62.34
2023-05-30T13:03:00,axn,43.42
2023-05-30T13:04:00,axn,44.23
2023-05-30T13:05:00,axn,44.44
2023-05-30T13:06:00,axn,43.66
2023-05-30T13:07:00,axn,44.22
2023-05-30T13:08:00,axn,43.67
2023-05-30T13:09:00,axn,57.21
2023-05-30T13:10:00,axn,44.37
2023-05-30T13:11:00,axn,44.56
2023-05-30T13:12:00,axn,60.27
2023-05-30T13:13:00,axn,59.80
2023-05-30T13:14:00,axn,59.87
2023-05-30T13:15:00,axn,59.68
2023-05-30T13:16:00,axn,59.43
2023-05-30T13:17:00,axn,44.52
2023-05-30T13:18:00,axn,45.25